N216TB TFFJ-TNCS

Flight info

Callsign N216TB
Flight time 0h 14m
Altitude 2500
Route DCT CS200 DCT CS100 DCT
Aircraft K100/L-L/C

Departure

Time 2026-05-04 12:07
Airport St. Jean Airport (TFFJ)

Arrival

Time 2026-05-04 12:22
Airport Juancho E. Yrausquin Airport (TNCS)
Time Latitude Longitude Altitude Speed Heading
2026-05-04 11:59 17.90491 -62.84658 57 ft 0 kts 26°
2026-05-04 12:05 17.90493 -62.84657 57 ft 0 kts 28°
2026-05-04 12:05 17.90490 -62.84676 55 ft 1 kts 142°
2026-05-04 12:06 17.90452 -62.84659 55 ft 5 kts 174°
2026-05-04 12:06 17.90433 -62.84645 49 ft 2 kts 98°
2026-05-04 12:06 17.90433 -62.84642 50 ft 0 kts 91°
2026-05-04 12:07 17.90436 -62.84450 40 ft 65 kts 87°
2026-05-04 12:07 17.90392 -62.83853 307 ft 87 kts 99°
2026-05-04 12:07 17.90667 -62.83307 704 ft 101 kts 27°
2026-05-04 12:07 17.91375 -62.83509 1114 ft 113 kts 335°
2026-05-04 12:08 17.92080 -62.83898 1550 ft 117 kts 336°
2026-05-04 12:08 17.92811 -62.84304 1980 ft 121 kts 339°
2026-05-04 12:08 17.93509 -62.84837 2414 ft 134 kts 304°
2026-05-04 12:08 17.93665 -62.85902 2496 ft 166 kts 255°
2026-05-04 12:09 17.93159 -62.87024 2508 ft 176 kts 237°
2026-05-04 12:09 17.92540 -62.88162 2516 ft 182 kts 237°
2026-05-04 12:09 17.91911 -62.89341 2507 ft 187 kts 237°
2026-05-04 12:09 17.91218 -62.90475 2508 ft 185 kts 219°
2026-05-04 12:10 17.90170 -62.91220 2506 ft 182 kts 204°
2026-05-04 12:10 17.89091 -62.91895 2503 ft 180 kts 206°
2026-05-04 12:10 17.88020 -62.92568 2505 ft 178 kts 205°
2026-05-04 12:10 17.87008 -62.93327 2507 ft 180 kts 217°
2026-05-04 12:11 17.86230 -62.94365 2509 ft 184 kts 238°
2026-05-04 12:11 17.85702 -62.95605 2507 ft 187 kts 245°
2026-05-04 12:11 17.85199 -62.96859 2507 ft 186 kts 243°
2026-05-04 12:11 17.84677 -62.98103 2504 ft 186 kts 243°
2026-05-04 12:12 17.84291 -62.99014 2508 ft 187 kts 243°
2026-05-04 12:13 17.84052 -62.99579 2509 ft 187 kts 243°
2026-05-04 12:14 17.80391 -63.08276 2492 ft 184 kts 244°
2026-05-04 12:15 17.79870 -63.09510 2487 ft 185 kts 240°
2026-05-04 12:15 17.79349 -63.10743 2483 ft 185 kts 244°
2026-05-04 12:15 17.78827 -63.11978 2486 ft 185 kts 242°
2026-05-04 12:15 17.78306 -63.13211 2483 ft 184 kts 242°
2026-05-04 12:16 17.77787 -63.14439 2475 ft 184 kts 243°
2026-05-04 12:16 17.77275 -63.15651 2485 ft 185 kts 243°
2026-05-04 12:16 17.76754 -63.16883 2488 ft 185 kts 243°
2026-05-04 12:16 17.76235 -63.18116 2489 ft 184 kts 243°
2026-05-04 12:17 17.75713 -63.19350 2491 ft 185 kts 243°
2026-05-04 12:17 17.75191 -63.20586 2486 ft 185 kts 244°
2026-05-04 12:17 17.74672 -63.21815 2485 ft 185 kts 243°
2026-05-04 12:17 17.74149 -63.23047 2492 ft 185 kts 244°
2026-05-04 12:18 17.73628 -63.24283 2492 ft 185 kts 244°
2026-05-04 12:18 17.73113 -63.25499 2494 ft 186 kts 244°
2026-05-04 12:18 17.72408 -63.26594 2489 ft 179 kts 214°
2026-05-04 12:18 17.71333 -63.27155 2490 ft 170 kts 185°
2026-05-04 12:19 17.70176 -63.27138 2383 ft 166 kts 160°
2026-05-04 12:19 17.69139 -63.26832 2135 ft 144 kts 159°
2026-05-04 12:19 17.68184 -63.26587 1822 ft 139 kts 161°
2026-05-04 12:19 17.67264 -63.26351 1538 ft 133 kts 157°
2026-05-04 12:20 17.66426 -63.26062 1227 ft 125 kts 150°
2026-05-04 12:20 17.65804 -63.25486 824 ft 114 kts 117°
2026-05-04 12:20 17.65534 -63.24804 708 ft 87 kts 109°
2026-05-04 12:20 17.65333 -63.24275 659 ft 73 kts 108°
2026-05-04 12:21 17.65173 -63.23816 620 ft 65 kts 110°
2026-05-04 12:21 17.65015 -63.23380 523 ft 62 kts 106°
2026-05-04 12:21 17.64903 -63.22942 368 ft 62 kts 109°
2026-05-04 12:21 17.64744 -63.22527 268 ft 61 kts 121°
2026-05-04 12:22 17.64575 -63.22144 145 ft 50 kts 107°
2026-05-04 12:22 17.64499 -63.21948 129 ft 11 kts 105°
2026-05-04 12:22 17.64489 -63.21909 124 ft 0 kts 159°
2026-05-04 12:22 17.64480 -63.21942 129 ft 18 kts 317°
2026-05-04 12:23 17.64514 -63.22017 135 ft 8 kts 239°
2026-05-04 12:23 17.64487 -63.22036 135 ft 0 kts 173°
2026-05-04 12:23 17.64477 -63.22026 133 ft 0 kts 106°
2026-05-04 12:24 17.64457 -63.22052 136 ft 4 kts 23°
2026-05-04 12:24 17.64456 -63.22053 136 ft 0 kts 24°